Airfield :
LOGIN :

Register | Disclaimer

   EN    FR    IT 

 










Legend :    VFR   Marginal VFR   IFR   Intensive IFR   Very Intensive IFR
Visi :
Ceiling :
>= 8 km
>= 3000ft
5 to 8 km
1000 to 3000 ft
1500m to 5 km
500 to 1000 ft
800 to 1500m
200 to 500 ft
< 800m
< 200 ft
Symbols :   Thunderstorms  Fog  Heavy snow  Heavy precipitations  Wind > 20 kt
SIGMETs :     Misc.  Thunderstorms  Icing  Turbulence  Mountain Waves  Volcanic Ashes







- Airport Elevation : 1470 ft
- IATA code : KLU


LOWK - Klagenfurt

CURRENT METAR :
  • 152050Z VRB01KT 9999 FEW004 BKN060 10/09 Q1022 NOSIG

EXPIRED METARs :
  • 152020Z VRB01KT 9999 FEW004 BKN060 10/09 Q1023 NOSIG
  • 151950Z VRB01KT 9999 FEW008 SCT060 BKN080 10/09 Q1022 NOSIG
  • 151920Z VRB01KT 9999 FEW008 BKN085 10/09 Q1022 NOSIG
  • 151850Z VRB01KT 9999 FEW012 BKN085 10/09 Q1022 NOSIG
  • 151820Z VRB01KT 9999 FEW012 BKN085 10/09 Q1022 NOSIG

TAF COR TAF LOWK
Valid from the 15 at 18:00 until the 16 at 18:00 UTC


151715Z 1518/1618 VRB02KT 9999 SCT060 BKN090 TX17/1615Z TN09/1605Z
TEMPO 1520/1609 3000 BR SCT004 BKN060
PROB30
TEMPO 1602/1608 0800 BCFG SCT002 BKN004
No reported NOTAMs for that airfield.



MET'MAP, your aeronautical weather chart ! - Copyright ORBIFLY December 2007 - Disclaimer

ORBIFLY MET'MAP TEAM :

Programming & Development : Alexandra Zaïnal
Concept & Development : Baudouin d'Aumeries
Co-Development & Prog : Marc-Olivier Méhu
Technical & hardware support : Manuel Goepfert

Contact : metmap@orbifly.com




SOURCES & CREDITS :

   NOAA